Theta_e
315 315 315 315 316 317 320 324 321 322 321 317 318 319 319 320 321 322 321 321 320 318 317 317 317 318 319 319 320 320 320 320 320 319 320 323 322 321 321 319 320 318 316 318 319 319 320 322 324 325 327 328 329 331 331 331 331 330 329 328 326 325 325 325 324 323 323 323 323 323 324 327 329 329 329 329 327 326 325 325 325 325 325 326 328 331 331 329 330 331 331 331 332 332 331 329 327
315 315 315 315 318 320 323 324 320 320 318 315 317 319 320 320 320 321 321 320 320 318 316 316 316 317 318 318 319 320 321 321 321 320 321 321 321 321 321 320 321 319 316 316 317 317 316 317 318 320 322 323 326 329 331 331 330 330 330 329 328 326 325 324 324 324 324 324 323 325 328 330 330 331 331 329 327 327 327 327 326 326 327 329 330 330 328 326 329 331 331 332 332 333 332 328 326
315 315 314 315 320 321 323 323 318 317 316 314 316 319 319 320 321 320 319 319 319 316 316 317 317 317 317 319 319 320 322 321 320 320 321 320 321 322 322 321 321 321 318 316 315 314 314 314 315 316 317 318 321 325 328 329 329 329 329 329 329 327 325 325 325 324 324 325 324 327 330 330 331 332 332 329 327 327 329 329 328 328 329 330 329 327 326 324 327 331 331 330 329 331 332 329 327
315 315 314 317 322 322 322 322 319 317 315 314 315 319 320 319 320 319 319 319 318 316 316 318 319 319 318 320 320 320 321 321 320 320 321 321 321 322 322 322 321 321 320 317 315 313 313 314 314 314 315 316 318 320 322 325 326 325 324 325 327 327 326 326 326 326 327 328 327 329 330 331 332 333 333 330 328 328 329 329 328 328 328 328 326 325 324 322 324 328 329 327 325 328 330 328 325
315 316 314 316 322 323 322 321 321 318 315 315 315 318 320 319 319 319 320 318 317 317 316 318 320 319 318 319 320 320 320 320 320 319 320 320 321 322 322 322 322 322 321 319 316 314 314 314 314 314 315 315 315 317 318 320 320 321 321 322 325 326 326 326 327 329 330 331 331 330 330 331 332 332 331 329 328 327 327 328 328 326 324 324 324 323 320 317 318 321 322 321 319 320 322 321 318
315 316 315 316 321 322 321 319 319 318 318 318 316 318 319 319 319 319 319 318 317 317 316 317 318 318 317 318 318 319 320 319 318 318 318 318 319 321 322 322 322 322 321 319 317 315 314 314 314 314 314 314 314 315 316 317 318 319 319 322 324 326 326 326 327 331 330 331 332 331 330 332 332 330 329 328 327 326 324 324 325 323 319 318 318 317 315 313 313 314 315 315 314 314 314 313 312
316 319 319 318 320 321 320 319 318 319 320 320 318 319 319 319 320 319 319 319 318 317 316 317 317 317 319 318 318 319 318 318 317 317 317 317 318 319 322 322 322 322 321 319 318 316 315 314 314 314 313 313 314 314 316 317 318 318 318 321 324 325 327 327 328 330 330 331 332 330 330 332 331 329 328 327 325 324 320 318 318 317 314 313 313 312 312 312 312 312 312 312 312 312 311 310 308
317 320 321 320 321 321 320 319 319 320 319 319 319 319 319 320 320 318 318 319 318 317 317 317 316 317 319 318 318 319 317 317 317 317 316 316 316 318 320 322 322 322 322 320 319 317 316 315 314 314 313 313 314 314 316 317 318 316 316 321 324 325 327 330 329 330 331 331 332 329 330 331 329 327 327 326 323 319 316 314 313 312 312 312 312 311 311 310 310 309 309 309 308 308 307 306 305
318 320 321 320 321 320 319 319 319 320 320 319 319 319 319 319 318 318 318 319 319 318 317 316 316 317 319 317 318 319 318 318 317 317 317 316 316 317 318 320 321 322 322 321 319 319 317 316 314 314 313 314 314 314 316 317 317 316 318 322 326 326 326 330 329 329 330 330 330 329 330 329 325 323 323 321 318 314 312 311 311 310 310 310 309 308 307 306 306 306 305 305 305 305 304 304 304
319 318 321 321 319 317 317 318 318 319 319 319 318 318 319 318 317 317 318 319 319 318 317 316 315 317 318 318 319 319 318 318 317 317 317 316 316 317 318 319 320 320 322 322 321 319 318 316 315 314 314 314 315 315 315 315 315 317 320 322 325 325 323 324 324 325 327 326 326 326 328 326 323 322 318 314 312 310 310 309 308 308 307 307 306 305 305 305 304 304 304 304 304 304 304 304 304
320 318 319 319 317 315 315 317 318 319 318 318 318 318 317 317 316 317 318 318 318 318 317 315 316 317 317 318 319 319 318 317 317 317 317 317 316 316 318 318 318 318 320 321 321 320 319 317 316 315 314 314 315 315 314 312 312 313 317 318 320 321 320 319 319 321 322 321 321 321 324 321 320 321 314 310 310 308 307 306 306 305 305 305 305 305 304 304 304 304 304 304 304 304 304 304 305
320 321 319 318 317 316 316 317 317 319 320 319 319 318 316 316 316 318 318 318 318 317 317 317 317 318 318 319 319 319 318 318 317 317 317 317 317 316 317 318 317 317 318 319 321 321 319 318 317 316 315 314 315 314 313 312 311 311 312 313 314 316 316 314 315 315 315 316 317 316 318 318 316 315 311 308 308 305 305 305 305 305 305 305 304 304 304 304 304 304 304 304 304 305 305 306 306
320 322 319 317 318 317 318 317 318 319 320 320 319 316 315 316 318 318 318 318 317 317 318 317 317 317 318 319 319 318 318 318 317 317 317 317 317 317 317 317 317 317 317 317 319 320 320 319 317 317 316 315 315 314 312 311 311 311 311 312 312 312 313 312 312 312 312 312 313 313 314 314 312 310 308 307 305 305 305 305 305 305 305 304 304 304 304 304 304 304 304 304 305 306 307 307 307
319 321 318 318 318 318 318 318 319 319 318 319 317 315 314 316 317 317 317 318 318 318 317 317 316 316 317 319 319 319 318 317 317 317 317 317 317 317 317 317 317 317 317 316 316 318 319 319 318 317 316 315 315 314 312 311 311 312 312 312 312 312 312 312 312 310 311 311 311 312 311 311 309 309 307 306 305 305 305 305 305 305 304 304 304 304 304 304 304 304 305 305 306 307 307 306 306
318 319 319 319 318 318 318 319 319 318 317 318 316 314 314 316 316 315 316 317 318 317 316 317 316 317 318 318 319 319 318 317 317 317 317 316 316 316 317 317 317 317 317 316 315 317 318 319 319 317 317 316 315 315 313 311 312 312 313 313 313 313 313 312 312 310 310 310 310 310 310 309 309 308 306 305 305 305 305 305 305 305 304 304 304 303 303 303 304 304 305 306 306 306 306 306 306
318 320 320 319 319 318 318 318 318 317 318 318 316 314 316 316 315 315 316 316 317 316 316 316 316 317 318 318 318 318 317 317 317 316 316 316 316 316 316 316 317 317 317 316 315 315 316 318 318 318 317 316 316 315 314 313 311 312 313 313 313 313 313 312 311 310 310 310 310 309 309 309 308 306 305 305 305 305 305 305 305 304 304 304 303 303 303 303 304 305 306 306 306 306 306 306 306
318 319 319 318 318 317 318 318 317 317 318 318 316 314 316 316 315 315 315 315 315 316 316 316 316 316 317 317 317 317 317 317 316 316 316 316 316 316 316 316 316 317 317 317 316 315 315 316 317 317 317 317 316 315 315 314 312 312 312 313 313 313 312 312 311 310 310 310 309 309 309 308 306 305 305 305 305 305 305 304 304 304 304 303 303 303 303 304 304 305 306 305 305 305 305 305 305
318 319 319 318 319 318 318 318 318 317 316 318 317 314 315 316 316 315 315 315 315 316 316 316 316 316 317 317 316 316 316 316 316 316 316 316 316 316 316 316 316 316 316 317 316 316 315 315 315 316 316 316 317 316 315 314 313 312 312 312 313 313 312 312 311 311 310 309 309 309 308 307 305 305 305 305 306 305 305 305 304 304 304 303 303 303 303 304 304 305 305 305 305 305 305 305 305
320 319 318 318 319 319 318 318 318 317 316 317 317 315 314 315 316 314 314 316 316 316 317 316 316 316 316 316 316 316 316 316 316 316 316 315 315 316 316 315 316 316 316 316 316 316 316 315 315 315 315 316 316 316 316 315 314 313 313 312 312 313 313 312 311 311 310 309 309 308 308 306 305 305 305 305 305 305 305 304 304 304 304 303 304 304 304 304 305 305 305 305 305 305 305 305 305
320 319 318 319 320 319 316 317 317 316 316 316 316 315 314 315 314 313 314 316 316 316 317 318 317 317 317 316 316 315 316 315 316 315 315 315 315 315 315 315 315 315 316 316 316 316 316 316 316 315 315 315 315 315 316 316 315 314 313 313 312 312 313 312 311 311 310 310 309 308 307 305 305 305 305 305 305 305 304 304 304 304 304 304 304 304 304 304 305 305 305 304 304 304 304 305 305
319 318 319 320 319 318 317 316 316 316 315 314 315 315 314 315 314 313 315 315 316 317 318 318 317 317 317 317 316 315 315 315 315 315 315 315 315 315 315 315 315 315 315 315 316 316 316 316 316 316 315 315 315 315 315 315 315 315 314 313 313 312 312 312 312 311 311 310 309 308 307 305 304 305 305 305 305 305 305 304 304 304 304 304 304 304 304 304 305 305 304 304 304 304 305 305 305
318 318 319 320 317 317 318 317 316 316 315 314 314 315 315 315 314 314 314 315 317 318 318 318 316 316 316 316 315 315 315 315 315 315 315 315 315 315 315 315 315 315 315 315 315 315 315 316 316 316 316 315 315 315 315 315 315 315 315 314 313 313 313 312 312 312 311 310 309 309 308 305 304 305 305 305 306 306 306 305 305 305 304 304 304 303 304 304 304 304 304 304 304 304 304 304 304
317 318 319 319 318 317 318 317 316 316 314 314 315 316 315 315 316 315 315 316 316 316 317 317 315 315 315 315 315 314 315 314 314 314 315 315 315 314 315 315 315 315 315 315 315 315 315 315 316 316 316 316 315 315 315 315 314 314 315 315 314 313 313 313 312 312 311 311 310 309 308 306 305 305 305 305 306 306 306 305 305 305 304 304 303 303 303 304 304 304 304 304 304 304 304 304 304
316 317 318 317 317 317 317 316 316 316 315 315 316 315 315 316 316 316 316 316 316 315 315 315 315 315 314 314 314 314 314 314 314 314 314 314 314 314 315 315 315 315 315 315 315 315 315 315 315 316 316 316 316 315 315 315 314 314 314 315 315 314 314 313 313 312 312 311 311 310 308 306 305 305 305 305 306 306 307 306 305 305 304 304 304 303 303 304 304 304 304 303 304 304 304 303 304
316 317 317 317 316 316 316 315 315 315 315 315 315 315 316 316 316 315 315 315 315 315 314 314 314 314 314 314 314 314 314 314 314 314 314 314 314 314 315 315 315 315 315 315 315 315 315 315 315 315 315 316 316 316 315 315 315 314 314 314 315 315 314 314 313 313 312 311 311 310 309 307 305 305 305 305 305 306 307 307 306 305 305 304 304 303 304 304 304 303 303 303 303 303 303 304 304
316 316 317 316 315 315 315 314 314 314 314 314 313 314 315 315 314 314 315 315 315 314 314 314 314 314 314 314 314 314 313 314 314 314 314 314 314 314 314 315 315 315 316 316 315 315 315 315 315 315 315 315 315 316 316 316 315 315 314 314 314 314 315 314 314 313 312 312 311 311 310 308 306 305 305 305 305 305 306 307 306 306 305 304 304 304 303 303 303 303 303 303 303 303 303 304 304
314 314 314 314 314 314 313 312 313 312 312 312 312 314 315 314 312 314 315 315 314 313 313 313 313 313 313 314 314 314 314 314 314 314 314 314 314 314 315 315 315 315 315 315 315 315 315 315 315 314 315 315 315 316 316 316 316 315 315 314 314 314 314 314 314 314 313 312 312 311 310 309 308 306 305 305 305 305 305 306 306 306 306 305 304 304 304 303 303 303 303 303 303 303 303 304 304
312 312 312 313 314 313 313 312 312 312 312 311 312 313 314 313 311 313 315 314 314 313 313 313 313 314 314 314 314 314 314 314 315 314 314 314 315 314 314 314 314 314 314 315 315 314 315 315 315 315 314 315 315 315 315 315 316 316 315 315 314 314 314 314 314 314 313 313 312 312 310 310 309 307 305 305 304 304 305 305 306 306 306 305 305 304 304 303 303 303 303 303 303 303 303 304 303
311 311 312 313 313 313 314 314 312 311 311 310 311 312 313 313 312 313 314 314 314 313 312 313 313 313 313 314 314 314 314 314 314 314 315 315 314 314 314 314 314 314 314 314 314 314 314 314 314 315 315 315 315 315 315 315 315 316 315 316 315 314 314 314 314 314 314 313 313 312 311 310 309 308 306 305 304 304 304 304 305 305 305 305 304 304 303 303 303 303 303 303 303 303 303 303 303
312 311 311 312 313 313 313 312 310 309 311 310 310 312 313 314 315 315 314 314 313 312 312 313 313 313 313 313 313 313 314 314 314 315 315 315 314 313 313 313 313 313 313 313 313 313 314 313 314 314 314 315 314 314 315 314 315 315 315 316 315 315 314 314 314 314 314 314 313 312 311 310 310 308 307 305 304 304 303 303 304 304 305 305 304 303 303 303 303 303 303 303 303 303 303 303 303
312 311 311 312 313 314 313 310 309 310 311 310 310 311 313 314 316 315 314 313 312 311 313 313 313 313 313 313 313 313 314 314 315 315 315 314 313 313 313 313 313 313 313 313 313 313 313 313 313 314 314 314 314 314 314 314 315 314 315 315 315 315 315 315 314 314 314 314 313 312 311 311 310 309 308 306 304 303 303 303 303 303 304 304 303 303 303 303 303 303 302 302 303 303 303 303 303
311 311 313 313 312 314 314 312 311 311 310 309 310 312 313 314 315 315 313 312 311 311 312 312 312 313 313 313 313 313 314 314 314 314 313 313 313 313 313 314 314 314 313 313 313 313 312 313 313 313 313 314 314 314 314 314 314 314 314 315 315 315 315 315 315 314 314 314 314 313 312 311 310 309 308 307 305 304 303 303 303 303 303 303 303 303 303 303 302 302 302 302 302 302 302 302 302
313 312 314 315 314 313 313 313 313 311 310 309 310 311 312 313 314 314 313 312 311 311 312 312 313 313 313 313 313 313 313 313 313 312 312 313 313 313 314 314 314 314 314 313 313 313 313 313 313 313 313 313 314 314 314 314 314 314 314 314 315 315 315 315 315 315 314 314 314 313 313 311 310 309 308 307 306 304 303 302 302 302 302 302 302 302 302 302 302 302 302 302 302 302 302 302 302
314 313 313 314 313 312 312 313 313 310 309 310 310 310 311 312 313 313 313 312 312 312 312 312 312 313 313 313 313 313 312 312 312 312 311 313 314 314 314 314 314 314 313 313 313 312 313 313 313 313 313 313 313 313 313 313 313 314 314 314 314 314 314 315 315 315 314 314 314 314 313 312 311 309 308 307 307 305 304 302 302 302 302 302 302 302 302 302 302 302 301 301 301 301 301 301 301
315 315 314 313 312 311 311 312 312 311 310 311 311 311 311 311 312 312 312 312 312 312 312 312 312 312 312 312 312 312 313 312 312 311 312 313 314 314 313 313 313 313 313 312 312 312 312 312 313 313 313 312 312 312 312 312 312 313 313 313 314 314 314 314 314 314 314 314 314 314 314 313 312 310 308 307 307 306 305 303 302 301 301 301 301 301 301 301 301 301 301 301 301 301 301 301 301
315 313 313 313 312 312 312 312 313 312 310 311 311 311 312 312 312 312 312 312 312 312 312 312 312 312 312 312 313 313 313 312 312 312 313 313 313 312 312 312 312 312 312 312 312 312 312 312 312 312 312 312 312 312 312 312 312 312 312 313 313 313 314 314 314 314 314 314 314 314 314 314 313 311 309 308 307 306 306 304 302 301 301 301 301 301 301 301 301 301 301 300 300 300 301 301 301
311 312 312 312 312 313 312 313 313 311 310 311 311 311 312 312 312 312 313 313 313 313 313 313 313 313 313 313 314 314 313 312 312 312 312 312 312 312 312 312 312 312 312 312 311 311 311 311 311 311 311 311 311 312 312 312 311 311 311 312 312 312 313 313 313 314 314 314 314 314 314 314 313 312 310 308 307 306 306 305 303 302 300 300 300 300 300 301 301 300 300 300 300 300 300 300 300
311 312 312 313 313 313 313 313 313 310 309 311 311 311 312 311 312 312 313 313 313 313 313 313 313 314 314 314 314 313 312 312 312 312 311 312 312 311 311 311 311 311 311 312 311 311 311 310 310 310 310 311 311 311 311 311 311 311 311 311 311 312 312 312 313 313 313 313 313 314 314 314 314 313 312 309 307 305 305 305 305 303 301 300 300 300 300 300 300 300 300 300 300 300 300 300 300
311 312 312 313 313 313 313 312 311 308 308 311 311 310 311 311 312 312 313 313 313 313 313 313 314 314 314 314 312 312 312 312 312 311 311 312 312 311 311 311 311 311 311 311 311 311 311 310 310 310 310 310 310 310 310 310 310 310 310 310 310 311 311 311 312 312 312 313 313 313 314 314 314 314 313 310 307 305 304 304 305 304 303 301 300 300 300 299 299 299 299 299 299 299 299 299 299
312 312 312 313 313 314 313 312 309 308 309 310 310 310 312 313 313 313 314 313 313 313 313 314 314 313 312 312 311 311 311 311 310 310 310 310 311 312 311 311 312 311 311 311 311 311 311 311 310 310 310 310 310 310 310 309 309 309 309 309 309 309 310 310 310 311 311 312 312 313 313 314 314 314 313 312 309 306 304 304 304 304 304 303 301 300 299 299 299 299 299 299 299 299 299 299 299
313 313 313 313 314 314 313 313 310 310 311 309 310 313 315 315 315 314 314 313 312 314 314 314 313 312 311 310 311 310 310 309 309 309 309 310 311 312 312 312 312 312 312 312 312 311 311 311 311 310 310 310 310 310 309 309 309 309 309 309 309 309 309 309 309 310 310 311 311 312 313 313 314 314 313 313 311 308 305 304 303 303 304 304 302 300 299 299 299 299 299 298 298 299 299 299 299
314 314 313 313 313 313 313 313 311 311 313 311 311 315 316 315 315 315 315 314 315 316 316 315 314 312 311 310 310 309 309 309 308 307 308 310 311 312 312 312 313 313 312 312 312 312 312 311 311 310 310 310 310 310 309 309 309 309 308 309 308 309 309 309 309 309 310 310 310 311 311 312 312 313 313 313 312 310 307 305 303 302 303 303 303 301 300 299 299 299 299 298 298 298 298 299 299
314 314 313 312 312 313 313 312 312 312 314 311 310 314 316 316 315 315 316 315 315 316 316 315 313 311 310 309 309 309 308 307 307 306 307 309 310 312 312 312 312 312 312 312 312 312 312 312 311 311 311 310 310 309 309 308 308 308 308 308 308 308 308 308 309 309 309 309 309 309 309 310 310 311 312 312 312 311 309 307 305 303 302 302 303 302 301 300 299 298 298 298 298 298 298 298 299
315 314 312 312 312 313 312 311 311 312 312 311 310 312 315 316 315 314 315 315 315 316 316 314 311 310 309 308 308 308 307 306 306 306 306 308 310 311 311 312 312 312 312 312 312 312 312 312 312 311 311 310 310 309 309 308 307 307 307 307 307 307 307 307 307 307 308 308 308 308 308 309 309 309 310 311 311 311 310 309 307 304 301 301 302 302 302 300 299 298 298 298 298 298 298 298 298
314 311 309 311 311 311 311 311 311 310 310 312 313 311 315 317 315 312 313 314 315 316 315 313 310 309 309 308 307 306 305 305 305 304 305 307 308 309 310 311 311 311 312 312 312 312 312 312 312 311 311 311 310 309 309 308 307 306 306 306 306 306 306 306 306 306 306 307 307 307 307 307 308 308 308 309 309 310 310 309 308 306 303 301 301 301 301 301 299 298 298 298 297 297 298 298 298
310 308 309 310 309 309 310 310 311 310 311 315 314 312 316 319 316 314 313 313 315 315 314 312 310 309 308 307 306 305 304 304 303 304 305 306 306 308 309 310 310 310 311 311 311 311 311 311 311 311 311 311 310 309 309 308 307 306 305 305 305 305 305 305 305 305 305 306 306 306 306 306 307 307 307 307 308 308 308 308 308 306 304 302 300 300 300 301 300 299 298 297 297 297 298 297 297
307 309 311 311 309 308 308 309 309 312 315 317 315 314 316 318 317 316 315 313 313 313 313 312 310 309 308 306 305 303 303 304 304 305 306 306 306 307 309 309 309 309 309 310 310 310 310 310 310 311 310 310 309 309 308 307 307 306 305 305 305 304 304 304 304 304 304 305 305 305 305 305 306 306 306 306 306 306 307 307 307 306 304 302 301 300 300 300 300 299 298 297 297 297 297 297 297
307 310 311 312 312 310 310 310 310 315 319 316 313 313 314 316 317 315 314 313 311 310 311 310 309 309 307 305 304 302 302 303 304 304 305 306 306 307 308 307 307 308 308 309 309 309 309 309 309 309 309 309 309 308 307 307 306 305 304 304 304 303 303 303 304 304 304 304 304 304 304 304 305 305 305 305 306 306 306 306 306 305 304 303 302 301 300 300 300 299 298 297 297 297 297 297 297
308 310 310 313 315 315 316 315 314 317 319 312 308 311 313 314 315 314 314 314 311 310 309 308 308 308 306 304 302 300 300 302 302 303 303 304 305 305 305 305 305 306 306 306 307 307 307 307 307 307 307 307 307 307 307 306 306 305 303 303 303 303 303 303 303 303 303 303 303 303 303 303 304 304 304 305 305 305 305 305 305 305 305 304 303 301 300 300 300 299 298 298 297 297 297 296 296
309 310 311 314 317 318 320 319 315 317 316 309 306 310 313 314 315 314 314 312 309 307 306 306 306 305 304 302 300 299 299 300 301 301 301 301 301 302 302 302 303 303 304 304 305 305 305 305 305 306 306 306 307 307 307 306 306 305 304 303 302 302 302 302 302 302 302 302 302 302 302 303 303 303 303 304 304 304 304 304 304 304 304 303 302 301 300 300 300 299 299 299 298 297 297 296 296
309 311 312 314 317 318 320 320 318 319 318 310 308 312 316 316 315 312 311 309 306 306 306 305 305 304 302 301 299 299 299 299 299 299 299 299 299 300 300 300 300 301 301 302 303 303 303 303 304 304 305 305 306 306 306 306 306 305 305 304 303 302 301 301 301 301 301 302 302 302 302 302 302 302 302 302 302 303 303 303 303 303 303 303 302 301 300 300 300 299 299 299 299 298 297 296 296
309 309 310 313 315 316 317 318 317 318 318 314 312 314 315 315 314 312 311 308 306 307 306 304 304 302 301 299 298 298 297 297 297 297 297 297 298 298 299 299 299 300 300 301 301 301 302 302 302 303 303 304 304 305 305 305 305 305 305 304 303 303 303 302 302 301 301 301 301 301 301 301 301 302 302 302 302 302 302 302 302 302 303 303 302 301 300 299 299 299 299 298 298 298 298 297 296
310 308 312 313 312 313 315 316 315 315 317 318 316 316 315 315 315 312 310 308 306 305 304 303 302 301 300 299 298 297 295 295 295 296 296 296 297 297 297 297 298 299 299 299 299 300 300 301 301 302 302 303 303 303 303 303 304 304 304 304 303 303 304 304 303 302 301 301 300 300 301 301 301 301 301 301 301 301 301 301 301 302 302 302 302 302 301 300 299 298 298 298 298 298 298 297 296
310 310 312 312 311 311 312 314 315 315 317 318 317 317 317 317 316 312 309 309 308 304 302 302 301 300 299 298 296 295 295 295 295 295 295 296 296 296 296 296 297 297 297 298 298 298 298 299 299 299 300 301 301 301 301 301 301 302 303 303 303 303 304 304 303 303 302 302 301 301 300 300 300 300 300 300 300 300 300 300 301 301 301 301 302 302 302 301 300 299 299 298 298 298 298 298 297
309 310 310 311 313 313 312 313 315 317 318 318 317 317 316 316 316 314 312 311 308 304 301 301 300 300 298 297 296 294 294 294 295 295 295 295 295 296 296 296 296 297 297 297 298 298 298 299 299 299 299 298 298 298 299 299 299 300 300 301 302 303 303 303 303 303 302 302 302 301 301 300 300 299 299 299 299 300 300 300 300 300 300 301 301 301 301 301 301 301 300 300 299 299 299 298 298
307 308 308 309 311 313 314 314 314 316 317 317 317 317 316 316 315 313 312 310 307 304 302 299 299 298 297 296 296 294 293 293 293 293 293 294 294 295 295 296 296 297 297 297 297 298 298 299 299 300 300 299 300 299 299 298 298 298 299 299 300 300 301 302 302 302 302 302 302 301 301 301 301 300 299 299 299 299 299 299 300 300 300 300 300 300 301 301 301 301 301 301 301 301 300 299 299
309 309 310 309 309 311 312 313 313 314 315 316 317 316 315 315 313 310 308 306 305 303 301 299 298 298 296 296 295 294 293 292 292 292 293 293 294 294 295 296 296 297 297 297 297 297 298 298 298 298 298 299 299 299 299 298 298 297 297 298 298 298 299 300 300 301 301 301 301 301 301 301 301 301 300 299 298 298 298 299 299 299 299 299 299 299 300 300 300 300 301 301 301 301 301 300 300
312 311 311 311 311 311 312 313 313 313 314 315 315 315 317 315 309 307 305 303 303 302 300 299 298 297 296 295 294 293 292 292 292 293 293 294 294 295 295 295 296 297 297 297 298 298 298 297 297 297 297 297 297 297 298 297 297 297 296 296 296 296 297 297 298 299 300 301 301 301 301 300 300 300 300 299 299 299 299 298 298 298 298 298 298 298 299 299 299 300 300 300 301 301 301 301 300
Wind_Speed
8 7 6 5 4 4 3 5 3 1 2 4 2 2 1 0 3 3 2 1 2 1 3 6 5 7 6 2 5 8 7 7 5 4 4 3 3 1 4 5 7 9 14 20 20 21 22 23 22 21 21 20 20 20 19 18 17 16 15 14 14 13 13 12 12 12 11 11 10 8 7 6 7 7 7 8 8 8 7 7 7 6 5 4 4 4 4 3 4 5 5 6 5 5 4 3 3
8 7 5 4 3 3 2 3 4 1 3 4 0 1 2 1 2 2 4 5 4 4 5 6 7 10 11 8 8 9 9 10 10 10 10 10 9 5 5 6 7 9 12 18 21 21 21 22 22 22 21 21 21 21 20 20 18 18 17 16 16 15 14 13 12 12 11 11 9 7 7 8 8 8 9 10 9 9 8 8 7 7 6 5 6 6 5 5 5 4 5 5 5 5 5 5 5
7 7 5 4 2 2 1 1 3 2 3 4 2 2 1 2 1 4 5 6 6 8 7 5 7 10 11 10 7 7 6 9 12 14 14 14 12 9 7 7 8 10 11 16 20 21 21 21 21 21 21 21 21 22 22 22 21 20 19 18 17 16 15 14 14 13 12 11 10 9 9 10 10 11 10 11 10 10 10 9 9 8 8 8 8 8 8 7 6 6 6 6 6 7 7 8 8
6 5 4 3 2 2 1 2 2 3 4 3 2 2 1 3 3 4 5 5 9 11 6 4 5 7 8 8 6 6 8 9 10 10 10 11 10 9 8 9 10 11 11 15 19 21 21 20 20 21 21 21 21 22 22 23 22 21 21 20 19 18 16 16 14 12 11 10 10 11 12 12 12 13 11 12 12 11 11 11 11 11 10 10 10 10 10 9 8 9 9 9 9 9 10 11 12
4 4 4 3 3 1 0 1 1 3 3 2 3 1 1 3 5 8 7 7 11 10 6 5 3 3 7 9 5 4 8 8 7 7 7 10 9 8 8 10 11 12 12 14 17 20 21 20 20 20 21 21 21 21 22 22 22 21 20 20 19 18 17 16 13 11 11 11 11 13 14 15 15 14 13 13 13 11 11 11 12 12 12 12 12 12 12 11 11 12 12 12 12 12 12 13 14
2 1 2 3 1 0 1 2 2 4 2 2 6 5 3 4 6 10 11 9 8 5 6 7 5 3 5 8 10 8 10 9 9 10 10 10 9 8 9 10 12 13 12 14 17 19 20 20 20 20 21 21 20 21 21 21 20 20 19 18 18 17 16 15 13 13 13 12 13 15 16 16 16 15 14 15 14 12 12 12 13 13 14 14 14 14 13 13 12 12 13 13 13 12 12 12 12
3 2 2 3 2 1 3 4 4 5 1 1 6 7 8 8 6 10 11 7 2 3 5 8 6 5 5 6 8 9 10 11 11 12 11 11 9 9 9 10 12 14 14 14 16 19 20 20 20 20 21 21 20 21 21 20 20 19 19 18 18 17 15 14 15 15 14 15 16 17 17 17 17 16 16 16 15 14 14 14 14 15 15 14 14 14 13 12 11 11 11 11 11 11 10 10 10
4 3 1 3 1 1 3 3 4 4 1 2 6 8 12 12 9 9 10 5 2 2 4 8 6 4 5 4 6 9 11 11 11 11 10 11 10 9 9 10 12 14 15 15 16 18 20 20 20 20 20 21 21 21 21 21 20 20 19 18 17 17 16 15 17 17 17 17 18 18 18 18 18 18 17 16 16 15 14 13 13 14 14 14 13 13 12 11 9 9 9 9 9 9 8 8 6
5 3 2 2 1 2 3 4 4 3 3 4 7 11 13 13 8 8 9 5 5 4 4 7 7 4 4 4 8 11 11 10 9 9 9 9 9 10 10 10 12 14 15 15 16 17 19 20 21 21 20 21 21 21 21 22 21 20 20 19 17 17 18 19 19 19 19 19 19 18 19 19 19 18 16 15 14 13 12 12 12 12 12 12 11 10 9 8 8 7 7 6 6 5 4 3 2
4 2 2 1 1 3 4 3 2 2 4 4 8 13 13 11 7 6 7 6 5 4 4 5 8 10 6 7 11 9 8 9 9 9 8 8 8 9 10 11 12 13 15 16 16 17 19 20 21 21 21 21 21 21 22 22 22 21 20 20 20 19 20 21 21 21 21 21 21 20 19 19 18 15 13 12 11 11 10 10 10 10 10 9 8 7 7 7 6 5 4 3 3 2 2 2 1
3 2 2 2 2 4 3 3 3 2 3 4 8 11 10 7 5 5 6 6 5 5 5 4 6 10 9 8 10 9 10 10 8 8 9 8 7 9 10 11 13 14 15 16 17 17 19 20 21 22 22 22 21 21 22 21 22 22 20 20 22 21 21 20 21 21 22 22 21 21 20 19 16 13 11 10 10 10 9 9 8 8 8 7 6 6 6 5 4 4 3 3 3 2 2 2 1
3 2 2 3 2 3 3 4 5 6 6 4 3 3 2 3 4 3 3 5 4 6 7 6 4 4 5 6 8 12 14 11 6 7 9 10 9 9 11 13 14 14 15 16 18 18 19 20 21 22 22 22 22 22 22 21 21 22 21 20 21 21 20 20 19 20 21 20 20 20 19 17 15 12 11 10 10 9 9 8 8 7 7 6 6 6 6 5 5 5 4 4 4 3 2 2 2
3 2 3 2 1 2 2 4 4 6 6 1 2 3 2 3 4 3 2 5 5 5 5 6 7 5 6 8 12 15 13 9 7 8 10 11 10 10 11 13 15 15 16 17 18 19 20 20 22 22 22 23 23 23 22 22 21 21 21 21 21 20 20 20 19 20 20 19 20 19 17 17 15 12 11 11 10 10 9 8 8 7 7 7 7 7 7 7 7 6 6 5 5 4 3 3 2
5 3 3 1 0 2 2 4 3 3 4 2 1 4 4 3 5 3 2 7 6 5 5 5 7 7 7 9 10 9 7 10 12 14 14 12 11 11 12 14 16 17 17 18 19 20 21 22 22 23 23 24 24 24 24 23 22 22 21 21 21 21 21 20 20 20 19 18 19 18 17 16 14 12 12 11 11 10 10 9 9 8 8 8 8 9 8 8 7 7 6 5 4 4 3 3 3
6 5 2 1 1 2 3 3 2 3 3 1 1 3 4 6 5 3 4 8 8 8 8 6 7 6 4 5 7 7 11 18 19 20 18 14 13 12 13 14 17 19 19 19 20 21 22 23 24 24 24 25 25 25 26 25 24 23 23 22 22 21 21 21 21 20 19 19 18 18 17 15 14 14 13 13 12 12 11 10 10 9 9 9 9 9 8 8 7 6 6 5 5 4 3 3 3
7 6 1 2 2 2 3 2 1 3 3 1 3 4 4 7 5 4 6 8 12 15 12 9 12 11 10 14 18 19 21 24 23 23 22 20 18 16 16 16 18 20 21 21 21 22 23 24 25 25 25 26 26 27 27 27 26 25 25 24 23 23 23 23 22 21 19 19 19 19 18 16 16 15 15 15 14 13 12 12 11 10 10 10 10 9 9 8 7 6 6 6 5 4 4 3 3
7 5 2 3 3 3 3 4 3 2 3 2 4 5 5 7 6 7 9 10 15 18 16 16 18 20 23 24 25 25 25 24 23 23 23 24 22 20 19 18 20 21 22 22 23 24 24 25 26 26 27 27 27 28 28 28 28 27 27 26 25 25 24 24 23 22 21 21 21 19 18 17 17 17 17 16 15 14 13 13 12 11 11 11 10 10 9 8 8 7 6 6 5 4 4 3 3
6 3 3 4 3 4 4 6 6 1 5 5 4 4 6 7 6 7 9 11 15 19 22 24 24 26 28 26 23 23 23 22 23 23 23 24 24 24 23 22 22 22 22 23 24 25 26 26 27 28 28 28 28 29 29 29 29 29 29 28 27 27 26 25 25 23 22 22 22 20 19 19 19 19 18 17 16 14 14 14 13 12 12 11 11 10 9 9 8 8 7 6 5 4 4 3 3
5 2 3 5 4 3 5 7 7 4 8 8 7 6 7 9 8 7 9 11 12 16 20 20 22 27 26 23 19 19 21 21 22 23 23 24 24 25 25 25 25 24 24 24 25 26 27 28 28 28 28 28 29 30 30 30 30 31 30 30 29 29 28 27 26 25 24 23 22 21 20 20 21 20 19 18 16 15 15 15 14 13 13 12 12 11 10 10 9 9 8 7 6 5 4 4 4
5 4 5 7 5 3 6 10 10 11 12 10 9 8 9 13 11 6 8 12 12 15 19 16 18 22 22 20 19 20 21 22 23 24 26 25 25 25 26 26 26 26 25 25 26 27 28 29 28 28 28 29 30 31 31 31 32 32 32 32 31 30 30 28 28 27 26 25 23 22 22 22 22 22 21 19 17 17 17 17 16 15 14 14 13 12 12 11 10 9 9 8 7 6 5 4 4
4 6 7 4 2 3 8 13 14 14 14 11 9 9 10 12 11 10 9 9 11 16 19 18 21 23 21 21 24 25 24 25 26 27 27 27 26 26 26 26 25 25 25 27 28 28 28 28 29 29 30 30 31 32 32 32 33 33 33 33 33 32 32 30 30 29 28 26 24 24 23 22 23 24 22 21 20 20 19 19 18 17 16 16 15 14 13 12 12 11 10 9 8 7 6 5 4
4 8 12 7 3 5 8 10 12 13 12 10 8 9 11 11 13 16 12 9 15 21 19 20 28 30 28 26 28 29 28 28 27 27 26 25 26 25 24 24 23 24 24 26 28 28 28 28 29 30 31 32 33 32 32 33 33 34 34 34 34 34 34 33 31 30 29 28 27 26 25 24 26 26 24 23 23 22 21 20 20 18 17 16 16 15 15 14 14 12 11 10 9 8 6 5 4
7 8 12 10 8 9 10 8 10 11 9 9 10 12 14 11 16 19 17 20 30 33 26 29 35 34 33 32 31 31 28 27 26 25 24 23 23 23 22 21 22 22 22 24 25 26 28 28 30 31 32 33 34 34 34 34 34 35 35 35 35 36 36 35 33 32 32 30 29 27 26 27 28 28 27 26 25 24 23 22 21 20 19 18 18 18 17 16 15 14 12 11 10 9 7 6 5
8 8 7 9 10 13 15 11 12 14 13 15 15 17 18 13 16 20 18 25 36 40 35 36 37 34 32 31 30 29 26 26 25 24 23 22 22 21 21 21 21 22 22 23 24 26 27 28 29 31 33 34 34 35 36 35 35 36 36 36 36 37 37 36 35 34 34 32 31 29 29 29 29 30 29 28 27 26 25 24 23 21 21 21 20 20 19 17 16 15 14 12 11 9 8 7 6
10 12 7 6 9 13 16 13 15 17 19 21 17 18 24 21 16 22 31 34 35 38 35 30 30 29 27 28 28 27 27 27 26 25 24 23 21 21 22 23 23 23 22 21 22 24 26 27 29 31 33 33 34 36 37 37 37 37 38 38 37 38 38 37 37 36 35 34 33 32 31 31 31 32 31 30 29 28 26 25 24 24 23 23 22 21 20 19 18 16 15 13 12 10 9 8 6
9 11 8 7 10 13 15 15 16 17 20 19 14 18 25 20 13 22 36 33 25 23 22 20 23 27 28 29 30 29 30 28 26 26 26 25 24 24 23 23 25 24 22 21 22 23 24 26 28 31 32 33 35 37 38 38 38 38 39 39 39 39 38 38 38 37 37 37 36 34 33 33 33 33 33 33 32 30 28 27 26 26 25 24 23 22 21 20 19 18 16 14 13 12 10 9 8
2 6 9 12 15 16 16 17 17 16 19 17 13 18 22 13 6 15 20 15 15 16 17 22 25 30 31 31 30 29 29 28 27 26 28 30 29 28 25 24 26 24 24 24 23 23 24 26 28 30 32 33 35 37 37 38 39 39 39 40 40 40 39 39 39 39 39 39 38 37 35 35 34 34 35 34 34 32 30 29 28 28 27 26 25 24 23 22 21 19 17 16 14 13 12 10 9
6 8 11 15 15 17 17 18 18 14 12 12 13 16 19 9 4 19 24 20 23 22 23 28 29 31 31 29 28 27 29 31 31 33 35 36 36 35 32 30 29 27 27 26 25 25 26 27 28 30 31 33 35 37 37 37 39 40 40 41 41 41 40 41 40 40 40 40 40 39 37 37 36 36 36 36 35 34 33 32 31 29 28 27 26 25 24 24 22 21 19 18 17 15 13 12 10
6 7 10 14 13 16 16 13 12 9 5 4 8 8 13 9 12 26 31 27 28 26 27 30 29 31 29 29 30 31 35 37 39 40 40 40 39 38 37 36 34 33 32 30 29 30 29 29 29 30 32 33 35 36 37 38 39 40 41 41 42 42 42 42 41 41 41 41 41 40 40 39 38 38 37 37 37 36 35 34 32 31 30 28 28 27 26 25 24 23 22 20 19 17 15 13 11
6 3 4 11 11 10 6 4 3 4 5 6 7 5 9 10 16 23 21 21 24 24 25 24 25 30 32 35 38 40 42 40 40 40 39 40 39 38 37 37 36 36 35 35 34 33 33 32 30 30 31 33 34 36 38 38 39 40 40 42 43 43 43 43 43 42 43 43 42 42 42 42 41 40 39 38 38 38 37 35 34 33 32 30 30 29 28 27 26 25 24 22 20 18 16 15 13
5 2 2 5 7 5 1 5 2 3 4 10 7 7 8 11 18 18 13 16 17 16 23 24 25 32 37 40 43 44 44 40 40 39 39 39 38 37 35 34 33 32 33 33 33 32 32 33 32 32 31 32 34 36 37 38 39 40 41 42 43 44 44 44 44 44 44 44 44 43 44 44 43 42 41 40 39 40 39 38 36 35 34 32 31 30 30 29 28 27 25 23 21 20 18 16 15
3 3 5 3 4 7 6 3 6 6 3 11 8 7 7 11 17 17 14 16 14 15 25 30 31 36 38 40 41 41 43 44 43 39 38 38 36 34 31 29 27 26 27 27 27 26 27 29 30 31 32 32 34 35 36 37 38 40 42 42 43 43 44 45 46 46 45 45 45 45 45 45 45 44 42 41 40 41 41 40 39 38 36 34 33 32 32 31 30 28 26 24 23 22 20 18 17
4 4 7 5 7 8 8 6 6 5 2 8 11 8 8 9 14 20 20 21 19 20 29 34 35 36 36 36 35 35 39 42 37 31 33 34 32 29 26 24 22 21 22 22 22 21 22 24 25 28 30 31 33 34 36 37 39 41 42 43 44 44 45 45 46 47 47 47 47 47 47 46 46 45 44 42 42 42 41 41 41 39 37 36 36 35 34 33 31 30 28 26 25 24 22 20 18
4 4 5 6 8 8 8 8 2 5 5 8 11 11 13 13 16 24 28 29 24 23 31 34 33 35 36 33 31 33 33 30 24 22 28 30 27 25 23 22 19 18 18 18 18 18 18 20 22 24 27 29 31 34 36 38 39 41 43 45 46 46 46 46 47 48 48 49 49 48 48 47 47 46 45 44 44 43 42 42 41 41 40 39 38 37 36 35 33 31 30 29 28 26 24 22 20
8 6 6 6 7 8 10 10 5 4 8 10 10 13 16 15 16 22 28 30 27 26 30 31 30 33 35 32 31 32 25 18 17 21 27 27 24 22 20 18 16 15 15 15 15 16 16 17 19 21 24 27 28 31 34 36 39 41 43 45 46 47 48 48 48 49 50 51 51 50 48 48 48 48 47 46 45 44 43 42 42 42 42 41 40 39 38 37 35 33 32 31 30 28 26 24 23
8 6 7 9 8 9 12 14 11 8 11 13 14 17 16 15 15 16 22 27 27 31 29 25 25 28 33 33 28 20 14 13 18 24 25 22 19 17 15 14 13 11 11 12 13 14 14 15 18 20 21 23 25 28 31 34 37 40 43 44 46 47 49 50 50 51 52 52 51 51 50 49 49 49 48 48 47 46 44 44 43 43 43 43 42 41 40 38 36 36 34 33 32 30 29 27 25
4 5 7 9 9 12 13 16 12 3 5 10 13 18 17 16 15 15 24 27 27 30 24 20 24 29 31 25 15 9 12 18 22 21 17 14 14 13 13 12 11 10 8 9 10 12 13 14 17 18 20 21 23 26 29 32 35 38 40 42 43 46 48 50 51 52 53 53 52 51 51 50 50 50 50 49 49 48 47 45 45 44 45 45 44 43 41 39 38 37 36 34 33 32 31 30 28
9 8 9 9 9 12 12 14 13 3 2 8 10 16 17 17 18 19 24 22 22 24 20 20 27 29 21 12 12 13 17 21 18 15 14 13 14 15 15 15 15 13 10 8 8 9 11 13 15 18 19 21 22 24 27 29 32 34 36 37 39 42 44 47 49 51 52 53 53 52 52 52 51 51 51 51 51 50 49 48 46 45 45 45 44 43 42 41 39 38 37 36 36 35 33 32 29
10 7 6 7 8 11 10 10 7 3 2 8 11 15 15 17 22 21 19 17 19 22 23 27 26 20 14 14 17 17 17 15 14 15 16 17 17 17 19 19 19 18 15 12 10 9 10 11 13 15 17 19 21 23 24 25 28 30 32 34 36 38 40 43 45 48 50 51 52 52 53 53 53 52 52 52 52 52 51 50 48 46 46 45 45 44 44 42 41 40 39 39 38 37 35 33 31
8 7 6 8 8 8 7 5 1 3 5 9 12 14 12 15 16 11 12 12 15 23 27 25 17 12 12 13 13 13 13 13 14 16 21 24 23 24 24 25 24 22 21 19 16 14 12 11 11 12 15 17 18 20 21 22 25 27 29 31 33 35 37 40 42 44 47 50 51 52 53 54 54 53 53 53 53 53 52 51 49 48 46 46 46 46 46 45 44 43 42 41 40 39 37 35 32
8 8 7 10 10 10 10 6 5 8 7 4 10 12 6 6 2 3 3 4 10 23 23 12 7 8 8 9 11 13 13 15 17 19 24 27 28 31 31 31 31 29 27 25 22 20 16 13 11 11 13 14 15 17 18 20 23 24 26 29 31 34 36 39 41 43 45 48 50 51 53 54 54 54 53 53 53 53 53 52 51 49 48 47 47 47 47 47 46 45 44 43 42 40 39 36 34
7 7 11 14 13 13 13 9 7 7 4 3 8 10 3 2 2 1 3 3 10 18 11 5 8 8 8 10 13 17 20 20 20 22 25 28 30 32 32 32 33 33 32 29 27 24 20 17 13 11 11 12 13 15 16 19 21 23 26 28 30 33 35 37 39 40 42 43 45 47 49 50 51 52 53 53 53 53 54 53 52 51 49 48 48 48 48 48 47 46 45 44 43 42 40 39 37
6 3 6 10 11 11 10 8 5 4 4 2 3 6 6 3 3 5 5 7 14 11 4 9 14 13 10 13 19 22 22 22 23 25 27 30 31 31 32 32 32 32 31 29 28 27 24 21 17 14 12 11 12 13 15 17 20 23 25 27 29 31 33 34 35 35 37 38 39 41 43 44 46 48 51 53 53 54 54 54 53 52 51 50 49 49 49 49 48 47 45 44 44 43 43 42 40
4 1 0 2 5 5 4 3 4 4 5 3 3 4 8 6 2 3 7 10 12 8 5 12 16 13 11 18 23 21 21 25 28 28 29 32 32 32 32 31 30 29 28 27 27 26 25 24 22 19 16 13 11 11 13 14 17 21 23 25 28 30 31 33 34 34 35 36 37 37 38 40 42 44 47 50 52 53 54 54 54 54 53 52 51 50 50 49 48 47 46 46 45 45 45 43 42
2 2 1 1 0 0 2 2 3 3 5 4 4 4 6 7 1 2 7 7 7 5 5 12 13 12 15 20 21 18 21 26 29 29 32 34 33 32 31 28 27 26 26 26 26 24 23 23 22 21 20 18 15 12 12 12 14 17 19 22 24 27 29 30 32 34 34 36 36 36 37 37 38 40 42 46 49 51 52 53 54 55 54 54 53 52 51 49 48 48 47 47 47 47 46 44 44
1 4 3 4 3 2 1 2 3 2 5 6 6 9 6 7 2 4 2 2 4 2 5 11 12 14 17 18 18 18 21 27 30 31 33 33 32 31 29 27 26 26 25 24 24 23 23 22 21 21 20 20 18 15 13 11 12 13 16 18 21 23 26 28 30 31 33 34 35 36 36 36 36 37 38 40 43 46 49 52 54 56 55 55 54 52 52 50 49 49 48 47 47 47 47 46 46
3 4 1 1 2 1 1 1 2 3 7 6 8 14 9 5 1 4 2 1 2 3 3 8 12 16 19 18 19 21 26 30 31 32 32 31 31 30 28 27 26 25 25 24 24 24 24 23 22 21 20 20 19 17 14 12 11 10 12 15 17 20 23 25 27 29 31 33 33 34 35 35 35 35 36 37 38 41 45 49 53 55 56 56 55 53 52 51 50 49 48 47 48 48 48 47 47
2 1 1 2 2 1 1 1 1 5 7 2 3 7 9 8 3 1 1 1 1 2 5 8 11 15 18 17 19 25 30 31 31 32 32 31 31 30 29 28 27 26 26 26 26 25 24 24 23 22 22 22 21 19 17 14 11 10 9 11 14 17 20 23 25 27 29 31 32 33 35 35 35 35 34 35 35 37 40 45 49 53 55 56 56 54 53 52 51 50 49 48 48 49 49 49 48
3 2 1 3 3 2 3 2 2 5 5 1 3 1 5 9 6 5 9 6 2 3 4 6 10 15 18 17 18 26 31 32 33 33 33 32 32 31 30 28 28 28 28 27 26 26 26 26 26 25 25 24 23 23 21 18 15 12 11 10 12 14 17 20 23 25 27 30 30 32 33 34 34 34 34 33 32 34 36 40 44 48 52 55 55 55 54 53 53 51 50 48 49 49 50 50 49
7 5 4 4 3 4 5 4 3 6 2 2 1 2 4 7 5 9 11 4 9 9 9 10 15 18 17 16 20 26 31 33 33 32 32 32 31 30 30 29 28 28 27 27 27 27 27 27 27 28 27 26 25 24 24 22 20 17 14 13 13 14 15 16 19 22 26 28 29 31 32 33 33 34 33 32 32 32 33 35 39 43 48 52 54 54 54 54 53 52 50 49 49 49 49 49 49
6 3 2 4 4 5 5 4 6 8 3 2 2 3 4 4 1 3 3 11 13 13 16 18 19 18 17 19 24 28 31 31 31 30 30 30 29 29 28 28 29 28 27 27 27 27 28 28 28 28 28 27 26 25 24 24 23 20 18 15 14 13 14 15 16 19 22 25 27 30 31 32 32 33 33 33 32 32 32 32 35 38 42 47 50 52 53 53 53 52 52 51 50 49 49 50 50
3 2 1 4 3 4 5 5 4 5 4 2 4 3 4 3 3 3 7 14 14 14 18 19 18 16 18 22 23 25 27 27 28 28 28 28 27 27 27 27 27 27 27 27 27 27 27 28 28 28 28 27 27 26 25 24 23 22 20 17 14 13 14 15 16 17 19 21 24 26 28 30 31 32 32 32 32 32 32 32 33 34 36 40 45 49 51 52 53 53 53 53 52 51 50 50 51
3 3 4 2 1 1 5 6 0 0 6 6 4 6 6 7 8 0 11 14 12 13 15 16 15 14 17 19 18 19 22 24 26 26 26 26 26 26 26 26 26 26 26 26 26 26 26 26 26 26 25 25 25 26 25 24 23 21 21 19 17 16 15 15 16 17 18 20 22 23 25 28 29 31 31 32 32 33 33 32 33 33 33 35 38 42 47 50 52 53 54 54 53 52 52 51 51
3 3 2 1 1 0 3 5 2 3 8 5 5 12 12 9 6 5 13 13 11 11 10 11 12 12 15 15 14 16 21 22 23 23 24 24 24 24 25 25 25 25 25 25 25 25 25 26 26 26 26 25 25 25 25 25 24 23 22 21 20 19 18 17 16 16 17 19 21 22 24 26 27 28 30 31 32 32 33 33 33 33 33 34 35 37 40 45 49 52 54 54 54 54 53 53 53
1 1 2 1 2 3 3 3 3 6 9 6 8 14 12 9 10 4 6 10 10 9 8 9 10 11 12 11 11 15 20 21 21 22 22 22 23 23 23 24 24 24 24 24 24 24 24 24 25 26 26 26 26 25 25 25 25 25 24 23 22 22 21 20 18 16 16 17 18 20 22 24 25 25 27 28 30 31 32 32 33 33 34 34 35 36 37 39 43 47 50 53 54 54 54 54 54
1 1 2 0 2 4 3 1 2 6 9 9 9 10 9 9 8 4 4 7 7 7 7 7 8 9 9 8 8 11 15 18 19 20 21 22 23 23 23 23 23 23 24 23 23 23 24 24 24 24 24 23 24 25 25 26 26 26 26 25 24 23 22 21 20 19 18 17 16 17 18 19 21 23 24 25 26 28 29 31 32 33 34 35 36 37 38 39 40 43 45 48 50 52 54 55 55
3 4 4 3 2 2 3 3 3 6 9 9 10 10 8 4 2 5 8 8 6 7 8 6 6 7 6 6 6 6 10 15 18 19 20 21 23 23 24 24 24 24 24 24 25 25 26 26 26 25 24 23 24 24 25 26 27 27 27 26 26 25 23 22 21 21 21 20 18 18 17 17 19 20 21 22 24 25 26 28 30 32 33 35 36 37 38 39 41 43 44 45 47 49 51 53 55
3 5 5 6 6 4 6 7 7 7 8 7 9 10 5 1 4 6 8 7 6 7 8 7 7 7 6 5 7 9 12 16 18 19 20 21 22 23 23 23 24 24 25 26 26 27 27 27 26 25 25 25 25 24 24 24 25 26 26 26 26 26 25 24 23 22 22 22 22 21 20 19 19 19 19 20 21 23 24 25 28 30 32 34 35 37 38 40 41 42 44 45 46 48 49 51 53
Wind_Direction
277 271 269 268 291 291 314 339 296 149 281 277 291 298 151 65 317 290 317 357 298 337 248 257 224 194 194 261 297 311 298 265 279 287 318 353 346 341 198 200 202 202 197 202 206 205 204 206 209 211 209 207 205 204 204 203 201 200 201 200 202 203 205 207 208 210 212 214 216 221 215 212 220 215 217 221 221 217 216 221 221 218 215 214 194 189 199 213 227 235 240 245 252 247 240 226 194
273 268 269 263 289 294 303 340 293 263 274 284 304 274 38 91 260 316 1 2 350 327 286 248 219 211 225 261 287 294 276 249 256 266 277 286 296 300 238 221 209 203 197 200 206 207 206 208 210 212 211 210 208 207 206 205 205 204 205 205 206 206 208 211 213 216 219 222 224 221 208 207 215 210 214 224 227 222 219 218 217 215 210 206 200 206 225 239 239 240 245 252 258 254 248 242 246
270 265 265 261 283 304 302 301 277 292 290 297 1 86 44 260 281 18 356 344 337 307 287 240 221 224 236 254 266 275 277 267 268 266 271 279 279 276 245 223 214 202 200 201 206 208 207 208 210 212 213 213 211 210 209 208 208 208 210 211 211 210 211 213 215 220 223 226 222 213 209 210 212 209 213 226 231 224 221 220 216 213 209 211 218 228 241 245 237 234 240 249 256 253 249 251 262
269 262 250 241 255 277 259 263 282 289 291 302 339 89 157 287 340 341 316 314 316 303 274 226 229 231 237 252 271 269 271 281 287 277 271 279 271 264 242 222 215 205 204 203 206 209 209 210 209 211 214 215 215 215 214 213 213 213 215 216 216 216 215 215 215 216 220 223 216 211 213 213 214 214 215 225 231 227 225 226 222 219 221 226 233 240 248 248 238 233 239 245 249 247 247 254 265
268 259 231 214 239 289 17 277 284 258 289 344 314 37 136 287 314 307 301 302 307 295 238 215 240 232 236 249 256 260 283 297 304 293 277 284 280 262 239 223 217 211 209 203 206 209 211 212 209 211 214 216 217 218 218 218 218 217 218 218 218 218 219 219 211 205 210 212 208 213 216 215 219 222 224 229 234 233 232 235 235 235 238 241 246 250 256 255 246 240 245 249 251 250 252 259 268
241 219 197 184 190 100 207 253 242 254 297 332 290 315 330 299 301 305 305 306 301 273 220 216 247 272 250 250 245 252 287 300 302 300 292 291 286 264 244 229 219 215 212 204 205 209 213 213 211 212 213 216 217 217 217 217 217 215 214 213 213 214 217 217 205 200 208 210 209 218 222 220 223 226 230 235 238 240 242 245 245 248 249 249 251 256 259 258 253 249 250 254 256 258 260 265 269
169 132 140 161 122 170 253 267 268 277 309 222 276 299 311 314 310 306 308 316 297 219 217 216 241 274 263 260 258 269 295 301 298 300 296 291 284 267 252 236 224 218 216 209 206 208 213 215 214 214 213 214 215 215 213 213 213 212 210 206 207 207 208 209 203 203 209 212 216 225 229 227 230 232 235 239 242 246 249 248 245 247 251 251 252 255 256 256 254 252 255 258 260 262 264 266 266
164 143 154 202 164 200 259 266 269 280 243 228 267 273 288 304 308 300 301 305 266 247 228 224 225 255 274 263 264 290 311 314 305 306 302 290 278 264 256 242 229 223 221 217 212 209 212 215 216 216 214 215 215 215 212 212 213 213 210 204 204 201 199 203 205 206 209 215 222 228 232 234 238 240 240 242 247 250 247 244 243 244 248 250 251 253 256 257 257 257 259 261 261 260 259 258 257
166 166 168 226 232 228 254 258 264 259 241 250 260 260 272 290 296 285 283 279 274 274 240 231 213 228 308 272 267 297 314 324 320 315 308 290 273 258 253 244 234 229 227 224 221 216 214 215 217 219 217 216 216 215 213 213 214 212 208 203 203 201 199 205 210 211 213 220 225 230 233 238 244 244 241 242 247 248 244 243 243 243 245 248 250 255 258 263 265 264 262 256 250 246 241 236 227
163 169 157 211 232 256 260 254 253 223 233 248 264 268 274 281 280 268 272 283 288 287 265 239 215 237 292 291 279 297 315 329 329 325 319 296 273 256 248 241 236 230 230 230 227 223 219 218 219 221 220 220 219 217 215 215 214 213 208 205 207 208 207 210 214 216 220 225 229 231 235 244 248 244 242 242 243 242 241 243 243 242 245 247 250 255 260 263 263 256 246 231 211 190 183 183 191
177 150 153 216 237 269 284 285 276 277 265 263 272 269 272 270 260 252 250 278 289 276 269 244 216 237 265 279 278 291 309 318 324 334 331 311 284 257 244 237 234 228 228 230 230 228 225 223 222 223 223 224 223 220 218 216 216 216 214 211 212 216 218 220 221 223 227 230 233 235 236 243 245 238 242 241 239 240 236 239 241 242 243 241 242 244 245 241 231 215 199 183 173 169 176 188 199
211 151 192 249 253 277 302 303 292 304 292 268 262 212 244 227 215 259 249 282 295 273 260 235 241 251 255 260 271 293 304 302 305 325 326 318 298 267 245 236 232 227 227 228 229 229 227 226 225 226 226 226 226 225 222 219 218 218 218 217 218 221 226 230 231 232 236 237 237 239 236 239 244 241 244 239 235 238 232 234 236 236 233 227 224 219 212 203 194 185 182 182 185 191 196 204 213
225 160 219 257 285 291 299 294 293 307 297 260 131 167 222 198 212 292 294 284 280 274 276 243 253 269 269 272 280 291 296 288 295 308 309 308 298 279 259 241 233 229 230 229 227 228 227 227 227 227 227 227 227 227 226 223 221 221 222 223 223 225 229 235 237 239 242 243 241 240 237 238 245 245 242 236 233 233 229 229 228 225 219 211 204 196 191 187 185 184 187 190 192 197 198 206 219
212 183 238 279 107 274 253 279 286 291 303 49 116 218 235 221 233 263 288 295 283 255 282 279 255 254 265 271 283 285 284 292 298 301 301 297 289 280 268 249 239 236 236 232 228 228 227 227 228 228 228 227 227 227 226 226 224 224 225 228 228 229 232 236 239 240 241 244 243 240 239 240 242 239 235 232 228 227 225 224 221 217 208 200 192 188 187 186 186 187 189 191 191 192 195 204 218
199 178 223 244 189 240 219 260 300 270 293 21 230 214 240 260 252 236 277 299 294 272 276 277 242 236 252 254 281 286 287 296 297 297 297 292 284 275 268 257 246 241 240 236 232 229 227 228 228 229 229 227 227 227 227 226 225 225 226 228 230 231 234 237 240 242 241 243 242 239 239 238 236 233 229 225 222 222 220 218 216 210 204 196 191 190 190 188 188 189 188 188 189 193 202 213 219
189 173 210 251 215 234 210 209 228 253 258 129 232 225 255 270 248 241 283 285 285 285 275 257 239 247 260 259 276 286 289 292 293 294 293 288 283 273 266 259 251 245 243 239 235 233 230 228 228 229 230 229 229 229 228 228 227 226 226 227 229 231 234 237 239 241 241 241 241 238 237 235 232 228 223 220 218 218 216 215 212 207 203 197 195 194 193 192 191 190 190 190 194 201 211 222 228
177 181 242 247 225 225 196 193 202 279 293 241 227 224 250 274 265 275 293 277 276 282 272 264 257 259 266 270 280 287 289 289 288 289 287 286 282 274 266 259 254 251 248 245 240 237 233 232 230 230 230 231 231 230 230 229 229 228 227 227 228 230 232 235 238 239 239 239 238 236 234 231 227 223 219 218 217 216 215 213 209 206 203 199 199 199 197 197 195 194 195 196 202 211 220 230 236
180 208 245 245 251 226 194 212 211 275 297 275 248 234 252 278 293 299 297 272 268 275 272 270 268 269 273 277 286 288 287 285 283 283 281 281 279 276 271 264 259 254 253 251 247 243 238 235 232 232 232 232 232 232 232 231 230 230 229 229 228 230 231 234 236 236 237 236 235 234 232 228 224 221 218 218 218 215 214 212 209 207 204 204 204 204 202 201 200 200 200 205 212 220 229 237 242
203 229 240 243 246 205 189 223 222 232 276 290 280 263 261 276 290 292 284 274 271 276 276 269 266 275 280 283 290 289 284 282 281 281 278 276 275 275 274 269 264 258 256 253 253 249 244 240 237 235 235 234 233 233 233 232 231 231 231 231 230 231 231 233 234 234 234 234 233 231 229 227 223 220 218 218 217 215 214 213 210 208 206 207 208 208 207 207 206 206 206 211 219 226 233 238 246
215 218 247 250 239 226 216 234 236 245 272 289 281 276 270 272 278 266 263 275 270 263 270 267 262 275 284 289 294 288 283 281 281 280 279 278 275 273 272 270 268 264 261 259 255 252 248 246 244 241 239 236 235 234 234 232 232 232 232 233 232 231 232 233 233 233 233 234 232 230 228 226 222 219 218 217 216 215 215 213 211 209 207 208 209 210 211 211 211 212 214 218 224 230 236 241 248
185 201 249 265 212 245 237 240 248 254 268 275 274 283 277 273 272 249 247 277 268 253 260 267 273 283 285 285 291 288 282 280 279 281 281 281 279 276 274 272 271 268 264 259 255 253 252 252 250 247 243 239 237 236 235 234 233 233 232 233 233 232 233 233 233 233 233 233 231 229 228 225 221 220 218 217 216 216 215 214 213 210 209 209 210 211 212 212 214 215 218 221 227 231 236 242 249
201 219 246 260 208 257 257 247 258 262 264 266 266 273 278 279 270 249 229 243 266 267 269 276 282 289 289 284 287 287 284 281 280 282 282 283 283 280 277 274 271 267 262 258 255 253 252 251 250 248 246 243 240 239 238 236 235 234 233 234 234 233 234 234 234 234 233 233 231 230 228 223 221 221 219 218 218 218 217 216 215 213 211 211 211 211 211 212 214 216 219 222 226 230 233 237 244
242 236 238 250 237 249 262 255 263 266 259 258 259 274 281 276 274 261 223 234 267 278 280 284 288 292 292 287 285 285 285 284 283 283 283 283 282 279 276 273 269 266 262 258 255 252 250 247 246 246 246 245 243 241 240 239 237 236 235 235 235 235 236 236 235 234 234 233 232 230 228 224 222 222 221 220 220 220 219 217 216 214 212 211 211 211 211 213 215 216 220 223 225 227 228 233 239
243 258 239 249 249 250 261 262 263 267 261 262 269 280 279 263 277 280 242 242 270 284 287 288 291 292 290 287 285 286 287 288 287 287 285 282 280 277 273 268 264 260 256 253 250 247 245 243 243 244 244 245 245 243 242 241 239 238 237 236 236 237 238 237 237 236 235 234 232 231 228 226 224 223 223 223 222 222 220 218 216 214 212 212 212 212 212 214 216 217 220 222 223 225 227 232 238
225 254 260 252 258 260 267 270 267 268 265 268 272 271 271 266 274 282 271 265 274 284 291 292 290 289 287 288 290 291 292 293 292 292 290 287 283 276 268 263 259 253 249 249 249 246 243 241 241 241 241 242 243 243 243 242 241 240 239 238 237 237 238 238 238 237 236 235 233 232 230 228 226 225 225 224 224 224 222 220 217 216 214 214 213 213 213 214 215 218 219 221 223 224 227 234 241
213 248 278 277 275 275 276 275 267 266 267 264 259 262 268 272 275 276 275 277 281 285 292 295 292 291 291 293 296 297 296 296 296 297 296 292 285 274 264 260 259 256 253 253 253 251 247 243 240 240 240 240 241 242 243 242 242 241 241 240 238 238 239 239 239 238 237 236 234 233 231 230 228 227 226 226 226 225 224 222 220 219 217 216 215 215 214 215 216 217 219 221 223 225 229 236 243
259 285 296 283 280 281 277 274 266 262 266 251 235 261 268 268 275 270 273 285 292 290 291 292 292 293 295 296 298 299 297 296 296 296 293 290 286 281 277 270 268 266 264 262 262 261 255 250 245 242 241 240 241 242 242 242 243 243 243 242 241 240 240 240 240 239 237 236 235 234 233 232 230 229 228 227 227 226 225 223 222 221 220 218 217 217 216 216 217 218 219 221 223 227 231 236 242
318 320 298 282 279 280 270 267 266 253 260 244 223 256 269 260 224 254 267 282 288 290 290 290 290 291 294 295 295 294 292 292 292 290 287 287 287 288 288 284 282 280 275 273 274 273 267 261 255 248 244 242 241 242 242 242 242 243 243 243 242 242 241 241 240 240 238 237 236 234 233 233 232 231 230 229 228 227 226 224 224 223 222 221 220 219 218 218 218 219 220 221 223 227 231 237 241
306 309 294 291 286 283 269 258 263 236 240 228 196 245 265 238 222 251 267 280 285 288 289 289 290 290 291 291 290 289 289 290 290 288 289 290 291 291 290 288 287 285 281 279 276 274 273 269 263 257 251 245 243 242 243 242 242 242 242 243 243 243 242 241 241 241 240 239 237 235 233 233 232 232 231 230 230 228 227 226 225 225 224 223 222 221 219 219 219 220 221 222 224 227 232 236 239
286 278 284 297 290 285 261 218 252 235 222 173 171 255 272 250 251 261 271 279 284 287 286 286 287 289 290 289 290 290 290 291 290 290 292 295 296 295 294 292 289 286 283 279 275 273 273 271 267 263 256 250 245 242 243 243 242 242 241 242 242 242 242 242 242 242 241 240 239 236 234 233 233 232 232 231 230 229 228 227 226 226 226 225 223 223 221 221 221 221 222 224 226 228 232 235 237
280 282 230 279 280 280 154 141 163 258 201 163 182 265 270 274 279 279 279 282 287 287 287 288 286 287 289 290 291 291 293 294 294 295 298 300 301 301 299 297 294 289 284 279 276 274 271 268 265 262 258 253 247 243 242 242 243 243 242 242 242 242 242 243 242 242 242 241 241 238 236 234 233 233 232 231 231 231 230 228 227 227 227 226 225 225 224 223 223 223 224 225 226 228 231 233 235
257 272 259 227 239 270 284 233 210 251 203 162 197 269 262 262 278 287 292 292 290 284 287 289 286 285 287 289 289 290 294 297 298 301 304 306 307 307 306 305 300 292 285 280 277 273 268 265 261 259 257 254 251 247 244 243 243 244 243 243 242 242 242 243 243 243 242 242 242 240 238 236 234 233 233 232 232 232 231 229 228 228 228 227 227 227 226 225 224 224 225 225 227 229 231 232 233
211 232 267 261 258 278 297 281 219 213 177 183 215 261 275 261 280 292 294 292 287 283 285 284 283 284 285 285 286 288 292 296 301 306 307 310 313 315 316 315 308 296 287 281 278 273 268 264 259 256 254 253 252 251 248 244 243 244 244 244 243 243 242 243 243 243 243 242 242 241 240 237 235 235 234 233 232 232 231 231 230 230 229 228 228 228 227 227 225 225 225 225 226 228 230 230 231
234 217 247 257 260 271 287 293 261 162 189 228 227 241 264 267 278 286 289 289 284 277 277 278 280 283 284 285 286 286 289 297 306 307 307 313 321 325 324 322 317 307 295 286 282 276 269 264 258 254 253 252 252 252 251 248 246 244 244 244 244 243 243 243 243 243 243 243 242 241 241 239 237 236 235 234 233 233 232 232 231 230 230 229 229 228 228 228 226 226 225 225 226 226 227 228 229
275 268 268 276 255 251 265 275 286 264 260 272 261 252 265 272 268 272 278 283 282 273 270 273 279 281 284 285 283 287 297 309 308 307 314 323 330 331 325 322 318 310 301 293 286 277 269 263 258 255 254 254 254 253 253 251 249 246 244 244 244 244 243 242 242 243 243 243 243 242 242 241 239 237 236 235 234 234 233 232 232 230 230 230 229 229 228 227 226 226 225 225 226 226 226 227 228
286 285 278 284 276 264 267 269 275 288 285 284 279 273 280 284 277 273 275 278 279 275 273 277 282 281 280 280 282 297 321 322 311 317 328 337 340 337 330 327 322 313 305 297 289 280 273 267 264 262 260 260 259 257 255 252 251 248 246 244 243 243 243 242 241 242 243 243 243 243 243 242 240 239 237 236 235 235 234 233 232 231 230 230 230 230 230 229 228 227 226 225 226 226 226 226 226
290 274 266 269 276 276 275 278 281 301 295 277 273 281 289 289 284 278 275 276 274 275 281 286 280 274 273 279 297 336 338 319 321 335 353 6 3 355 348 344 340 333 320 301 291 286 281 274 270 268 267 266 263 261 259 257 254 252 250 247 245 245 244 243 242 242 242 243 243 243 243 242 241 240 238 237 236 236 235 234 233 231 230 230 231 232 232 232 230 228 227 226 226 226 226 225 224
258 260 271 268 266 271 272 281 290 345 320 272 268 283 291 291 287 274 267 268 270 275 282 277 269 269 276 309 337 338 328 325 344 14 33 35 24 17 15 13 9 2 350 324 303 291 284 279 276 275 274 271 269 267 266 264 262 259 258 256 253 251 250 248 247 246 245 245 245 244 243 243 242 241 239 237 237 236 235 235 234 233 232 232 232 232 232 233 231 229 228 226 226 226 226 226 224
255 251 263 268 266 276 272 267 288 40 285 287 299 295 292 284 277 273 269 264 264 268 266 263 266 277 304 332 329 330 340 350 17 34 41 45 41 38 35 31 27 20 12 358 339 315 293 282 280 280 280 279 278 274 271 270 268 265 263 261 259 257 256 255 253 252 251 250 249 248 246 244 243 241 240 238 237 237 237 236 236 235 234 233 233 232 232 232 231 230 229 227 226 225 225 226 225
242 242 254 267 265 274 271 247 339 10 279 293 304 292 282 272 263 266 282 270 259 266 266 267 281 308 326 334 338 351 4 17 30 39 49 55 56 54 48 43 39 33 26 18 7 353 332 306 288 280 281 284 284 282 280 277 272 270 267 264 263 261 259 259 257 255 254 253 251 250 248 247 245 243 241 239 238 238 238 238 237 236 235 235 235 234 233 233 231 230 229 228 227 226 226 226 225
236 232 239 259 262 262 266 282 341 313 280 305 313 296 272 262 241 129 258 249 260 274 275 279 321 343 352 5 17 27 36 42 45 47 52 55 56 54 49 45 43 40 35 29 22 16 6 349 321 297 287 285 287 288 286 282 277 274 270 265 262 260 258 257 256 255 253 253 251 250 249 247 246 244 243 241 239 238 239 239 239 238 237 236 236 236 235 235 234 232 230 229 229 228 229 229 227
256 228 227 247 262 269 273 295 333 308 274 46 350 319 287 158 115 162 263 269 272 279 288 339 11 31 43 39 44 54 60 60 55 50 50 54 54 49 45 42 41 40 37 34 31 29 25 17 3 339 317 304 297 293 289 286 282 277 272 268 264 262 262 261 261 260 260 259 257 255 254 251 249 247 245 244 241 240 239 239 240 239 238 237 237 237 236 236 235 234 233 232 231 230 230 230 229
268 238 228 243 257 267 276 294 311 297 294 27 16 307 288 258 217 251 276 263 260 271 347 30 37 50 57 57 60 62 60 58 55 49 47 51 51 45 41 38 36 37 35 33 32 32 32 30 25 16 359 341 324 310 301 294 288 283 279 276 273 270 269 269 269 270 270 269 266 263 261 258 255 251 248 246 243 241 239 239 240 240 240 239 238 238 238 237 237 236 236 235 234 232 230 230 231
262 44 10 235 251 257 251 267 259 277 310 300 189 232 281 283 239 249 246 240 256 278 25 55 57 46 42 62 67 61 52 51 52 48 45 48 47 43 40 37 34 34 32 31 29 29 30 30 29 27 23 14 358 337 321 309 299 292 287 283 278 275 273 272 273 273 272 272 270 267 265 262 259 255 251 248 245 243 241 240 240 240 240 239 239 239 240 240 239 238 236 235 235 233 232 232 233
304 56 45 97 82 214 183 247 258 276 311 282 184 173 271 279 209 231 247 248 280 299 44 62 64 46 45 62 64 53 49 53 55 51 49 49 47 44 42 38 35 31 30 31 29 26 26 26 27 27 27 26 22 11 353 336 320 306 297 290 284 281 279 275 274 274 273 272 271 270 267 265 263 260 256 253 250 246 243 241 240 240 240 240 240 240 241 241 241 239 237 235 234 234 234 234 233
117 129 103 88 88 83 144 268 283 277 282 263 186 171 251 288 190 181 239 289 285 245 87 70 70 62 55 54 50 46 50 55 55 53 52 51 49 49 45 39 35 31 31 30 29 27 25 24 23 22 23 24 27 28 22 10 351 329 313 301 294 290 285 280 278 277 275 274 274 273 271 269 268 266 262 259 255 251 246 243 241 240 240 240 240 240 241 242 242 241 240 238 237 236 236 235 234
132 159 148 107 136 96 138 267 307 273 266 253 187 181 217 273 198 176 176 149 276 282 49 65 74 67 55 44 41 48 52 52 50 51 52 51 50 48 44 40 37 33 31 28 27 27 26 25 24 21 19 18 19 24 27 28 18 356 333 316 305 296 288 285 283 280 278 278 278 277 276 275 273 271 268 263 259 254 250 246 243 241 241 241 240 240 241 242 243 243 242 240 239 238 238 237 236
178 200 297 286 246 174 192 176 159 251 264 277 142 178 214 236 231 139 204 200 205 300 356 48 73 66 55 45 42 50 54 52 49 48 47 44 43 42 40 39 37 35 32 29 28 28 28 28 27 25 23 19 17 17 19 21 20 10 349 327 314 302 293 289 287 285 283 282 281 280 279 279 278 276 274 270 266 260 254 249 245 243 242 241 241 240 240 241 242 244 243 241 240 239 239 238 237
206 207 224 272 282 258 247 230 196 246 259 61 75 133 228 243 244 242 260 283 58 71 27 62 80 67 60 55 49 52 54 53 51 48 46 43 41 40 40 38 37 35 34 33 31 31 31 31 31 31 29 24 19 16 15 14 10 5 351 333 318 308 300 295 292 290 287 285 284 282 281 281 280 279 279 277 274 269 262 256 251 248 245 244 243 241 241 241 241 242 243 242 241 240 240 239 238
188 196 192 217 254 266 263 251 256 268 261 90 122 182 246 272 260 234 250 331 59 73 69 80 82 74 69 63 57 56 56 54 52 50 49 48 46 45 44 42 41 39 36 35 34 33 33 32 32 32 32 28 23 18 15 13 9 4 354 341 324 310 304 300 297 294 291 289 288 285 284 283 282 282 282 281 280 276 271 265 260 255 251 248 246 244 243 242 242 243 243 243 242 242 241 241 240
185 180 182 224 245 254 264 254 260 277 286 121 148 179 262 301 26 198 146 80 79 83 80 80 80 79 75 65 59 57 56 54 54 53 52 50 49 48 46 44 43 40 37 35 33 31 31 31 31 30 28 26 22 20 17 14 11 7 359 349 333 318 311 305 300 297 295 294 293 290 288 286 285 284 284 283 281 278 276 271 266 261 256 252 249 247 246 245 244 244 244 244 243 243 242 241 241
173 109 195 250 242 223 259 271 264 296 306 239 202 227 263 276 283 242 131 104 93 82 78 76 72 68 63 58 53 53 55 55 54 54 53 51 50 48 46 45 42 40 38 35 33 30 28 27 27 26 26 24 20 18 18 17 14 10 5 356 341 329 321 313 306 300 297 295 293 292 290 289 287 286 285 284 282 280 278 275 271 267 263 258 254 250 247 246 245 245 245 244 244 243 242 241 241
141 159 203 226 23 199 260 274 262 305 273 258 238 259 272 279 287 230 119 114 98 79 73 72 67 62 60 56 49 50 55 56 55 54 52 50 49 48 45 43 41 38 36 34 32 29 27 25 24 22 22 20 17 16 16 17 16 13 11 5 355 347 337 325 313 304 299 294 291 290 290 289 288 288 287 287 285 282 280 277 274 271 267 263 259 255 252 248 246 246 246 245 245 244 243 242 241
138 187 224 104 32 323 251 264 254 230 254 249 237 261 275 279 278 110 116 120 106 88 78 75 70 65 65 61 53 54 58 58 57 54 51 48 46 45 43 41 39 37 34 31 28 26 24 24 23 22 20 18 16 16 14 14 13 12 11 9 5 0 353 342 325 310 301 295 292 292 290 288 287 287 287 286 286 283 281 279 276 274 271 267 264 260 257 253 250 248 247 247 246 246 245 243 242
129 254 311 338 239 235 200 224 249 245 253 250 233 249 260 257 257 235 142 127 109 96 87 78 69 65 68 67 60 58 59 58 55 51 48 46 43 40 38 36 35 32 29 27 24 21 18 17 15 15 15 15 14 13 12 11 9 9 10 9 8 5 1 356 345 330 314 302 296 293 291 290 288 286 284 284 283 283 282 281 278 276 273 270 267 263 260 257 254 252 251 250 248 247 246 245 243
91 274 280 284 259 259 234 221 277 257 259 262 247 245 245 248 262 255 132 106 94 95 89 75 69 72 73 72 67 61 60 57 53 49 46 42 40 37 33 31 28 26 25 22 19 16 14 11 8 5 3 1 360 360 1 2 3 4 3 4 5 5 4 2 357 350 340 326 309 297 291 290 288 287 286 283 281 281 281 281 281 279 276 273 270 266 263 260 257 255 254 253 252 250 248 247 245
196 216 227 218 216 266 273 247 235 247 257 261 259 254 247 257 14 97 108 90 78 93 97 94 95 96 92 87 86 75 62 55 50 45 40 36 33 29 26 23 20 18 16 15 15 13 11 10 8 5 1 356 353 353 353 354 356 357 357 358 359 1 2 2 1 359 356 350 339 323 308 296 290 288 286 284 283 281 280 280 279 278 277 275 273 270 267 264 261 258 256 254 253 252 251 249 247
219 226 224 233 231 235 260 246 217 227 247 257 264 263 248 109 75 101 108 103 109 120 122 124 123 120 118 99 77 63 54 48 43 38 33 28 24 21 18 16 13 9 7 5 4 3 3 5 5 4 2 360 358 355 352 352 351 351 352 353 354 355 356 357 358 358 358 357 354 348 336 320 308 299 291 285 283 280 279 278 278 277 276 275 273 271 269 266 264 262 260 257 255 253 252 251 249